Zacatecas Airport, Mexico

6:47 PM CDT on July 22, 2017 (GMT -0500)
Gen Leobardo C Ruiz International

Weather History for MMZC - November, 2012

Change the Weather History Date:

Wednesday, November 14, 2012

  Actual Average Record
Temperature  
Mean Temperature 58 °F -  
Max Temperature 71 °F 70 °F 78 °F (2008)
Min Temperature 46 °F 37 °F 30 °F (2007)
Degree Days  
Heating Degree Days 6    
Growing Degree Days 8 (Base 50)    
Moisture  
Dew Point 44 °F    
Average Humidity 60    
Maximum Humidity 76    
Minimum Humidity 38    
Precipitation  
Precipitation 0.00 in - - ()
Sea Level Pressure  
Sea Level Pressure 30.35 in    
Wind  
Wind Speed 6 mph ()    
Max Wind Speed 17 mph    
Max Gust Speed -    
Visibility 9.7 miles    
Events      
Averages and records for this station are not official NWS values.
T = Trace of Precipitation, MM = Missing Value Source: Averaged Metar Reports

Daily Weather History Graph

Daily Weather History Graph

Search for Another Location

Airport or City:

Trip Planner

Search our weather history database for the weather conditions in past years. The results will help you decide how hot, cold, wet, or windy it might be!

Date:

Astronomy

Nov. 14, 2012 Rise Set
Actual Time 7:03 AM CST 6:06 PM CST
Civil Twilight 6:40 AM CST 6:30 PM CST
Nautical Twilight 6:12 AM CST 6:57 PM CST
Astronomical Twilight 5:45 AM CST 7:24 PM CST
Moon 7:49 AM CST (11/14) 7:04 PM CST (11/14)
Length of Visible Light 11h 50m
Length of Day
11h 02m
New Moon, 1% of the Moon is Illuminated
Nov 14
New Moon
Nov 20
First Quarter
Nov 28
Full
Dec 6
Last Quarter
Dec 13
New

Hourly Weather History & Observations

Time (CST) Temp. Windchill Dew Point Humidity Pressure Visibility Wind Dir Wind Speed Gust Speed Precip Events Conditions
1:43 AM 50.0 °F - 41.0 °F 71% 30.38 in 10.0 mi SW 9.2 mph - N/A   Mostly Cloudy
2:45 AM 50.0 °F - 41.0 °F 71% 30.34 in 10.0 mi WSW 8.1 mph - N/A   Mostly Cloudy
3:45 AM 48.2 °F - 41.0 °F 76% 30.33 in 10.0 mi Calm Calm - N/A   Mostly Cloudy
4:45 AM 48.2 °F - 41.0 °F 76% 30.34 in 9.0 mi Calm Calm - N/A   Mostly Cloudy
5:45 AM 50.0 °F - 41.0 °F 71% 30.34 in 10.0 mi Calm Calm - N/A   Scattered Clouds
6:43 AM 50.0 °F - 41.0 °F 71% 30.36 in 10.0 mi SSW 8.1 mph - N/A   Scattered Clouds
7:45 AM 46.4 °F 43.5 °F 39.2 °F 76% 30.38 in 10.0 mi NE 5.8 mph - N/A   Partly Cloudy
8:41 AM 53.6 °F - 42.8 °F 67% 30.40 in 10.0 mi Calm Calm - N/A   Mostly Cloudy
9:41 AM 62.6 °F - 44.6 °F 52% 30.40 in 10.0 mi SSW 11.5 mph - N/A   Mostly Cloudy
10:55 AM 66.2 °F - 46.4 °F 49% 30.40 in 8.0 mi WNW 5.8 mph - N/A   Scattered Clouds
11:40 AM 69.8 °F - 44.6 °F 40% 30.38 in 10.0 mi ENE 6.9 mph - N/A   Scattered Clouds
12:41 PM 69.8 °F - 44.6 °F 40% 30.36 in 8.0 mi Calm Calm - N/A   Mostly Cloudy
1:41 PM 71.6 °F - 44.6 °F 38% 30.33 in 8.0 mi NE 13.8 mph - N/A   Mostly Cloudy
2:41 PM 71.6 °F - 44.6 °F 38% 30.32 in 10.0 mi East 9.2 mph - N/A   Mostly Cloudy
3:41 PM 71.6 °F - 44.6 °F 38% 30.30 in 10.0 mi East 9.2 mph - N/A   Mostly Cloudy
5:52 PM 68.0 °F - 42.8 °F 40% 30.31 in 10.0 mi SE 6.9 mph - N/A   Mostly Cloudy
6:44 PM 60.8 °F - 48.2 °F 63% 30.34 in 10.0 mi WNW 6.9 mph - N/A   Mostly Cloudy
7:41 PM 57.2 °F - 48.2 °F 72% 30.34 in 10.0 mi SE 17.3 mph - N/A   Mostly Cloudy
8:41 PM 57.2 °F - 46.4 °F 67% 30.35 in 10.0 mi SE 15.0 mph - N/A   Clear
9:48 PM 57.2 °F - 46.4 °F 67% 30.35 in 10.0 mi SE 12.7 mph - N/A   Clear
10:45 PM 55.4 °F - 44.6 °F 67% 30.36 in 10.0 mi SW 5.8 mph - N/A   Clear
11:49 PM 55.4 °F - 44.6 °F 67% 30.35 in 10.0 mi South 3.5 mph - N/A   Clear